This is the latest recevied weather packets stored in our database for station/object KB3KBR-WX. If no packets are shown the sender has not sent any weather packets the latest 10 day(s).
| Time | Temp. | Humidity | Pressure | Rain* | Wind** | Luminosity | Snow |
|---|---|---|---|---|---|---|---|
| 1777818690 | 8.33° C | 54% | 1012.6 hPa | 0 mm | - | - | - |
| 1777818688 | 8.33° C | 54% | 1012.6 hPa | 0 mm | - | - | - |
| 1777818387 | 8.33° C | 54% | 1012.7 hPa | 0 mm | - | - | - |
| 1777818087 | 8.33° C | 56% | 1012.8 hPa | 0 mm | - | - | - |
| 1777817759 | 7.78° C | 59% | 1012.8 hPa | 0 mm | - | - | - |
| 1777817457 | 7.78° C | 60% | 1012.9 hPa | 0 mm | - | - | - |
| 1777817157 | 7.22° C | 61% | 1012.9 hPa | 0 mm | - | - | - |
| 1777816828 | 7.22° C | 62% | 1013 hPa | 0 mm | - | - | - |
| 1777816529 | 7.22° C | 64% | 1012.9 hPa | 0 mm | - | - | - |
| 1777816198 | 6.67° C | 65% | 1013 hPa | 0 mm | - | - | - |
| 1777815900 | 6.67° C | 66% | 1013.1 hPa | 0 mm | - | - | - |
| 1777815567 | 6.67° C | 69% | 1012.9 hPa | 0 mm | - | - | - |
| 1777815237 | 6.11° C | 72% | 1013 hPa | 0 mm | - | - | - |
| 1777814909 | 5.56° C | 72% | 1012.9 hPa | 0 mm | - | - | - |
| 1777814607 | 5.56° C | 72% | 1013 hPa | 0 mm | - | - | - |
| 1777814277 | 5.56° C | 74% | 1013 hPa | 0 mm | - | - | - |
| 1777813947 | 5° C | 73% | 1012.9 hPa | 0 mm | - | - | - |
| 1777813287 | 4.44° C | 77% | 1012.8 hPa | 0 mm | - | - | - |
| 1777812990 | 3.89° C | 78% | 1012.8 hPa | 0 mm | - | - | - |
| 1777812689 | 3.89° C | 78% | 1012.8 hPa | 0 mm | - | - | - |
| 1777812357 | 3.33° C | 80% | 1012.8 hPa | 0 mm | - | - | - |
| 1777812030 | 3.33° C | 80% | 1012.7 hPa | 0 mm | - | - | - |
| 1777812028 | 3.33° C | 80% | 1012.7 hPa | 0 mm | - | - | - |
| 1777811727 | 3.33° C | 80% | 1012.7 hPa | 0 mm | - | - | - |
| 1777811400 | 2.78° C | 82% | 1012.7 hPa | 0 mm | - | - | - |
* Rain latest hour (hover to see other rain measurements)
** Current wind speed in m/s (hover to see current wind gust speed)